[[{"header":{"parameterUnit":"m.s-1","parameterCategory":2,"la1":30.2991,"la2":30.254,"lo1":-89.0895,"lo2":-89.0444,"dy":0.0017,"dx":0.0017,"nx":28,"ny":28,"refTime":"2023-07-19T09:00:00:Z","depth":"0","parameterNumber":2,"parameterNumberName":"U-component_of_CURRENTS"},"data":[0,0,0,0,0,0,0,0,0,0,0,0,0,0,0,0,0,0,0,0,0,0,0,0,0,0,0,0,0,0,0,0,0,0,0,0,0,0,0,0,0,0,0,0,0,0,0,0,0,0,0,0,0,0,0,0,0,0,0.3899,0.3901,0,0.4051,0.4053,0.4055,0.41,0.4099,0.4098,0.4097,0.4163,0.4166,0.4169,0,0,0,0,0,0,0,0,0,0,0,0,0,0.3728,0.3731,0.3899,0.3901,0.3902,0.405,0.4053,0.4055,0.41,0.4099,0.4098,0.4097,0.4163,0.4166,0.4169,0,0,0,0,0,0,0,0,0,0,0,0,0,0.3835,0.3732,0.3899,0.3941,0.3946,0.405,0.4053,0.4056,0.41,0.4099,0.4098,0.4096,0.4161,0.4165,0.4169,0.4223,0,0,0.4181,0.4183,0,0,0,0,0,0,0,0,0.3829,0.3842,0.3933,0.3938,0.3944,0.4053,0.4017,0.4107,0.4101,0.4044,0.4097,0.4095,0.4118,0.4126,0.4162,0.4226,0.4229,0.4182,0.4184,0.4186,0.4187,0,0,0,0,0,0,0,0.3821,0.3836,0.3961,0.3935,0.3942,0.398,0.3993,0.4035,0.4087,0.4049,0.4052,0.4066,0.4121,0.4158,0.4163,0.423,0.4182,0.4185,0.4188,0.4189,0.4375,0.4378,0,0,0,0,0,0,0.3797,0.3829,0.3956,0.3965,0.388,0.3984,0.3999,0.4021,0.4089,0.4098,0.4067,0.4068,0.4152,0.4159,0.4166,0.4231,0.4186,0.419,0.4192,0.4373,0.4376,0.4379,0,0,0,0,0,0,0.3792,0.3807,0.395,0.3898,0.3919,0.3987,0.4013,0.4025,0.4062,0.4104,0.4111,0.4091,0.4151,0.416,0.4221,0.4233,0.4191,0.4195,0.437,0.4374,0.4377,0.4362,0,0,0,0,0,0,0.3787,0.3805,0.3819,0.3897,0.3921,0.3997,0.4015,0.4029,0.4072,0.4074,0.4126,0.4131,0.415,0.4215,0.4225,0.4238,0.4198,0.4367,0.4372,0.4376,0.436,0.4365,0.437,0,0,0,0,0,0.3781,0.3804,0.3819,0.3835,0.3936,0.3997,0.4013,0.4059,0.4074,0.4088,0.4142,0.413,0.4252,0.4221,0.4231,0.4246,0.4364,0.437,0.4376,0.4357,0.4364,0.437,0,0,0,0,0,0,0.3747,0.3813,0.3831,0.3876,0.3924,0.4004,0.4026,0.4063,0.4123,0.4121,0.4165,0.4175,0.4239,0.4256,0.422,0.432,0.4305,0.4314,0.4288,0.4295,0.43,0.4268,0.4202,0,0,0,0,0,0.3744,0.3769,0.3838,0.3871,0.3892,0.3961,0.3995,0.4024,0.4084,0.4109,0.4149,0.4205,0.4276,0.4292,0.4349,0.4396,0.4441,0.4416,0.4421,0.4425,0.4412,0.4526,0.454,0.4398,0.4397,0.4397,0,0,0.3739,0.3778,0.3793,0.3863,0.3905,0.3938,0.3978,0.402,0.4052,0.4106,0.4159,0.4227,0.43,0.4363,0.439,0.437,0.4493,0.4432,0.4435,0.4419,0.4534,0.4547,0.4559,0.4401,0.4401,0.44,0,0,0.3733,0.3774,0.379,0.3828,0.3882,0.3921,0.393,0.4005,0.404,0.4105,0.4171,0.4249,0.4324,0.4392,0.4436,0.4507,0.453,0.4521,0.45,0.4612,0.4624,0.4634,0.4713,0.4731,0.4506,0.4506,0.4506,0,0.3723,0.3753,0.3804,0.3829,0.3851,0.3909,0.3925,0.3982,0.4067,0.4106,0.4106,0.4286,0.4341,0.4453,0.4479,0.4514,0.457,0.4462,0.4615,0.4627,0.4638,0.4716,0.4736,0.4506,0.4506,0.4506,0.4506,0,0.3731,0.3752,0.3763,0.3805,0.3839,0.3859,0.3927,0.3968,0.401,0.4073,0.4184,0.4283,0.4385,0.4424,0.4469,0.4586,0.4599,0.462,0.4587,0.4651,0.473,0.4751,0.4506,0.4506,0.4506,0.4506,0,0,0.3702,0.3755,0.3753,0.3756,0.382,0.3841,0.3896,0.3966,0.4006,0.4095,0.4165,0.4311,0.437,0.4427,0.4507,0.459,0.4729,0.4625,0.4631,0.468,0.4959,0.4891,0.4907,0.4776,0.478,0.4783,0.4982,0,0.3682,0.3694,0.3737,0.3741,0.3749,0.3812,0.3855,0.393,0.4002,0.4085,0.4213,0.4319,0.4372,0.4431,0.4529,0.4699,0.4783,0.4671,0.4909,0.4916,0.4829,0.4929,0.4753,0.4909,0.5003,0.5007,0.5009,0,0.367,0.3674,0.3671,0.3693,0.3702,0.372,0.3781,0.3835,0.3976,0.4041,0.4168,0.4278,0.4454,0.447,0.4759,0.4688,0.4814,0.492,0.4931,0.4879,0.4886,0.4865,0.4944,0.4736,0.5041,0.5039,0.5036,0,0.3603,0.3623,0.3604,0.3616,0.3663,0.3676,0.3708,0.3821,0.387,0.4034,0.4092,0.4302,0.4415,0.4619,0.4842,0.4823,0.5127,0.5137,0.5186,0.5182,0.5083,0.5063,0.4965,0.5316,0.5316,0.5315,0.5315,0,0.3566,0.355,0.3567,0.356,0.3542,0.3607,0.3627,0.3702,0.3814,0.3893,0.407,0.4172,0.4458,0.4662,0.4854,0.5086,0.5155,0.5198,0.524,0.5073,0.5052,0.4905,0.4799,0.5323,0.5321,0.532,0.5319,0,0.3514,0.3523,0.3501,0.3515,0.3514,0.3509,0.3555,0.3585,0.3706,0.3816,0.3876,0.4112,0.4393,0.4651,0.499,0.5091,0.5173,0.5378,0.5141,0.515,0.497,0.4872,0.4745,0.4627,0.5476,0.5476,0.5475,0,0.3497,0.3478,0.3451,0.3423,0.3427,0.3426,0.3431,0.3527,0.3581,0.3788,0.3846,0.4112,0.431,0.4741,0.5006,0.5321,0.5146,0.527,0.5196,0.4935,0.4859,0.4687,0.4583,0.5076,0.5072,0.507,0.5067,0,0.3452,0.3435,0.3403,0.335,0.3328,0.3307,0.3337,0.3353,0.3503,0.3612,0.3788,0.3952,0.436,0.4584,0.4939,0.5128,0.4958,0.5216,0.5028,0.4594,0.4322,0.4234,0.4947,0.5041,0.5044,0.5046,0.5047,0.5048,0.3403,0.3366,0.3313,0.3261,0.3224,0.3188,0.3161,0.3238,0.3307,0.3468,0.3664,0.3869,0.4161,0.4655,0.4786,0.4805,0.4831,0.4709,0.4637,0.4506,0.428,0.4906,0.4987,0.4989,0.4991,0.4993,0.4994,0,0.3326,0.3284,0.3229,0.3143,0.3068,0.309,0.3089,0.308,0.3146,0.3356,0.3515,0.3733,0.393,0.4159,0.4317,0.4222,0.4126,0.4097,0.3794,0.3749,0.4392,0.4257,0.408,0.408,0.408,0.408,0.4081,0.4081,0.3277,0.3192,0.3162,0.3008,0.2949,0.286,0.2841,0.2872,0.2986,0.3097,0.3206,0.3349,0.3547,0.3667,0.3618,0.3607,0.3335,0.3224,0.3209,0.3611,0.366,0.3707,0.3553,0.3231,0.323,0.246,0.2454,0.2448]},{"header":{"parameterUnit":"m.s-1","parameterCategory":2,"la1":30.2991,"la2":30.254,"lo1":-89.0895,"lo2":-89.0444,"dy":0.0017,"dx":0.0017,"nx":28,"ny":28,"refTime":"2023-07-19T09:00:00:Z","depth":"0","parameterNumber":3,"parameterNumberName":"V-component_of_CURRENTS"},"data":[0,0,0,0,0,0,0,0,0,0,0,0,0,0,0,0,0,0,0,0,0,0,0,0,0,0,0,0,0,0,0,0,0,0,0,0,0,0,0,0,0,0,0,0,0,0,0,0,0,0,0,0,0,0,0,0,0,0,0.1291,0.1292,0,0.1327,0.1327,0.1328,0.1262,0.126,0.1257,0.1255,0.1096,0.1094,0.1092,0,0,0,0,0,0,0,0,0,0,0,0,0,0.124,0.1241,0.1291,0.1292,0.1292,0.1327,0.1327,0.1328,0.1262,0.1259,0.1257,0.1254,0.1097,0.1094,0.1092,0,0,0,0,0,0,0,0,0,0,0,0,0,0.1267,0.1241,0.1291,0.1264,0.1262,0.1327,0.1327,0.1328,0.1263,0.1259,0.1256,0.1253,0.1098,0.1095,0.1091,0.1135,0,0,0.1081,0.108,0,0,0,0,0,0,0,0,0.1266,0.1269,0.1268,0.1266,0.1264,0.1287,0.1251,0.1254,0.1263,0.1262,0.1255,0.1252,0.1145,0.1137,0.1153,0.1127,0.1121,0.1081,0.1079,0.1077,0.1076,0,0,0,0,0,0,0,0.1264,0.1268,0.1305,0.1269,0.1266,0.1276,0.1275,0.1253,0.1217,0.1262,0.1257,0.1263,0.1142,0.1157,0.1148,0.1118,0.1081,0.1078,0.1076,0.1074,0.1072,0.1074,0,0,0,0,0,0,0.1261,0.1266,0.1304,0.1306,0.1258,0.1279,0.1278,0.1282,0.1221,0.1211,0.1266,0.126,0.1164,0.1152,0.1142,0.1195,0.1077,0.1074,0.1072,0.107,0.1072,0.1074,0,0,0,0,0,0,0.126,0.1264,0.1302,0.1287,0.1292,0.1283,0.1288,0.1285,0.1303,0.1227,0.1211,0.1287,0.1161,0.1147,0.1144,0.1187,0.1073,0.107,0.1067,0.107,0.1073,0.1296,0,0,0,0,0,0,0.1258,0.1263,0.1284,0.1287,0.1293,0.1365,0.1291,0.1288,0.1311,0.1304,0.124,0.1222,0.1158,0.115,0.114,0.118,0.1067,0.1065,0.1069,0.1072,0.1286,0.1306,0.1323,0,0,0,0,0,0.1256,0.1305,0.1285,0.1291,0.1316,0.1368,0.1374,0.1355,0.1316,0.1353,0.1303,0.1224,0.1164,0.115,0.1139,0.1178,0.1063,0.1068,0.1072,0.1278,0.1302,0.1322,0,0,0,0,0,0,0.1312,0.1303,0.1281,0.1328,0.1353,0.1357,0.139,0.1377,0.1374,0.1355,0.1269,0.1251,0.1261,0.1192,0.1178,0.1183,0.1093,0.1096,0.1253,0.1275,0.1293,0.1306,0.1064,0,0,0,0,0,0.1331,0.135,0.1355,0.1397,0.1405,0.1401,0.1423,0.1414,0.1405,0.1402,0.1364,0.1307,0.1276,0.1253,0.122,0.1237,0.1164,0.1245,0.1264,0.128,0.1281,0.1245,0.1261,0.1089,0.1089,0.1088,0,0,0.1363,0.1364,0.1375,0.1409,0.1414,0.1457,0.1406,0.1452,0.1486,0.1383,0.1421,0.1383,0.1297,0.1317,0.1312,0.1261,0.1291,0.1286,0.1301,0.1292,0.1251,0.1268,0.1283,0.1092,0.1091,0.109,0,0,0.143,0.1436,0.1462,0.1493,0.1517,0.1524,0.1543,0.1564,0.1567,0.1607,0.1536,0.154,0.1489,0.1461,0.1426,0.1527,0.14,0.1495,0.1594,0.1562,0.1576,0.1588,0.1523,0.1527,0.1495,0.1496,0.1496,0,0.1465,0.1494,0.1491,0.1532,0.1564,0.1555,0.1608,0.163,0.1656,0.167,0.1633,0.1609,0.156,0.1569,0.1604,0.1573,0.1509,0.1525,0.1589,0.1599,0.1607,0.1537,0.1539,0.1507,0.1506,0.1505,0.1504,0,0.153,0.1573,0.1603,0.1633,0.1684,0.1737,0.1759,0.1809,0.1807,0.1816,0.1846,0.1805,0.1775,0.1774,0.1719,0.1755,0.1677,0.163,0.1541,0.1638,0.1558,0.1556,0.1523,0.1519,0.1516,0.1513,0,0,0.1548,0.1624,0.1632,0.167,0.1739,0.1785,0.1863,0.1923,0.1962,0.1987,0.2023,0.202,0.1993,0.1952,0.1898,0.1884,0.1908,0.1788,0.1781,0.1738,0.1804,0.1736,0.1725,0.1867,0.1868,0.1868,0.1728,0,0.1589,0.1669,0.1708,0.1815,0.1863,0.1911,0.1986,0.2049,0.2075,0.2118,0.209,0.2101,0.2055,0.2046,0.2035,0.1942,0.1909,0.1948,0.1701,0.1693,0.1635,0.1724,0.1671,0.1541,0.1724,0.1724,0.1723,0,0.1627,0.1678,0.1768,0.1894,0.1919,0.1988,0.2098,0.2167,0.2228,0.2245,0.2263,0.2225,0.223,0.2158,0.2062,0.2081,0.1958,0.1879,0.187,0.1724,0.1622,0.1469,0.1527,0.1238,0.1718,0.1718,0.1719,0,0.1613,0.1729,0.1796,0.1838,0.197,0.203,0.2103,0.22,0.2266,0.2315,0.2354,0.2333,0.2313,0.2204,0.2076,0.2053,0.1939,0.1874,0.169,0.1681,0.1544,0.1523,0.1305,0.178,0.178,0.178,0.1781,0,0.1642,0.1706,0.1791,0.1833,0.194,0.2033,0.2144,0.2222,0.2318,0.24,0.2404,0.2444,0.2324,0.2252,0.2105,0.1912,0.1956,0.1719,0.1655,0.1619,0.1608,0.1271,0.1176,0.1775,0.1776,0.1777,0.1778,0,0.1637,0.1686,0.1776,0.1894,0.1937,0.2013,0.2173,0.2256,0.235,0.2451,0.2473,0.2513,0.2435,0.2301,0.2113,0.1943,0.1625,0.1672,0.1632,0.1567,0.1109,0.1031,0.082,0.0735,0.1429,0.1427,0.1425,0,0.1643,0.1678,0.1792,0.1843,0.19,0.2014,0.2107,0.2248,0.2344,0.2498,0.2547,0.2526,0.2534,0.2265,0.1984,0.1711,0.1527,0.1429,0.1384,0.1087,0.0952,0.0933,0.0878,0.1279,0.1276,0.1274,0.1272,0,0.1651,0.1674,0.1736,0.1831,0.1924,0.205,0.2187,0.2272,0.2442,0.2552,0.2664,0.2688,0.2461,0.2196,0.1842,0.1632,0.1257,0.1365,0.1073,0.084,0.079,0.0677,0.1343,0.1251,0.1253,0.1254,0.1255,0.1256,0.1633,0.1668,0.1726,0.1826,0.1936,0.208,0.2178,0.2334,0.2501,0.2705,0.2723,0.2807,0.2382,0.1915,0.1614,0.0947,0.1062,0.0709,0.0643,0.0653,0.0569,0.1183,0.1016,0.1017,0.1017,0.1018,0.1018,0,0.1602,0.1644,0.1725,0.1843,0.1952,0.2034,0.2233,0.2347,0.253,0.2749,0.2864,0.2655,0.2138,0.1603,0.0736,0.0288,0.021,0.0044,-0.0027,-0.0044,0.0475,0.0461,0.0149,0.0149,0.0149,0.015,0.015,0.015,0.1581,0.1623,0.1672,0.1819,0.1918,0.2076,0.2191,0.2386,0.2572,0.2771,0.2818,0.2833,0.2273,0.081,-0.022,-0.0411,-0.0652,-0.0676,-0.0778,-0.0501,-0.0445,-0.0392,-0.0434,-0.0928,-0.0929,-0.1267,-0.1271,-0.1275]}],[{"header":{"parameterUnit":"m.s-1","parameterCategory":2,"la1":30.2991,"la2":30.254,"lo1":-89.0895,"lo2":-89.0444,"dy":0.0017,"dx":0.0017,"nx":28,"ny":28,"refTime":"2023-07-19T09:00:00:Z","depth":"2","parameterNumber":2,"parameterNumberName":"U-component_of_CURRENTS"},"data":[0,0,0,0,0,0,0,0,0,0,0,0,0,0,0,0,0,0,0,0,0,0,0,0,0,0,0,0,0,0,0,0,0,0,0,0,0,0,0,0,0,0,0,0,0,0,0,0,0,0,0,0,0,0,0,0,0,0,0.2538,0.2539,0,0.2631,0.2631,0.2632,0.2778,0.2781,0.2784,0.2787,0.3095,0.31,0.3106,0,0,0,0,0,0,0,0,0,0,0,0,0,0.2345,0.2349,0.2538,0.2539,0.2541,0.263,0.2631,0.2632,0.2777,0.2781,0.2785,0.2788,0.3093,0.31,0.3106,0,0,0,0,0,0,0,0,0,0,0,0,0,0.2428,0.235,0.2537,0.2628,0.2637,0.263,0.2631,0.2632,0.2777,0.2781,0.2786,0.279,0.3091,0.3099,0.3107,0.3065,0,0,0.3132,0.3135,0,0,0,0,0,0,0,0,0.2424,0.2435,0.2613,0.2622,0.2632,0.2702,0.2677,0.2789,0.2775,0.2719,0.2787,0.2792,0.2983,0.3,0.2998,0.3079,0.3092,0.3132,0.3137,0.3141,0.3143,0,0,0,0,0,0,0,0.2418,0.2431,0.257,0.2614,0.2626,0.2615,0.2633,0.2697,0.2824,0.2724,0.2736,0.2752,0.299,0.2989,0.3007,0.3097,0.3132,0.3139,0.3144,0.3147,0.334,0.334,0,0,0,0,0,0,0.2419,0.2426,0.2567,0.2573,0.2542,0.2616,0.2636,0.2671,0.2819,0.2846,0.2748,0.2759,0.2973,0.2997,0.3019,0.3151,0.3141,0.3148,0.3153,0.334,0.334,0.3341,0,0,0,0,0,0,0.2414,0.2431,0.2563,0.2504,0.2521,0.2616,0.2653,0.267,0.272,0.2836,0.2867,0.2788,0.2978,0.3007,0.314,0.3159,0.3152,0.3159,0.3339,0.334,0.334,0.3306,0,0,0,0,0,0,0.2408,0.2429,0.2452,0.2505,0.2525,0.2592,0.265,0.2669,0.2723,0.2739,0.2879,0.291,0.2984,0.3128,0.3148,0.317,0.3165,0.3339,0.334,0.334,0.3307,0.3306,0.3304,0,0,0,0,0,0.2401,0.2411,0.2453,0.247,0.2556,0.2592,0.2601,0.2679,0.272,0.274,0.2857,0.2908,0.3145,0.3135,0.3159,0.3183,0.3339,0.334,0.334,0.3308,0.3306,0.3304,0,0,0,0,0,0,0.2336,0.2429,0.2476,0.2516,0.2569,0.262,0.2641,0.2684,0.2778,0.2818,0.2924,0.2962,0.3056,0.3128,0.3114,0.3236,0.3244,0.3249,0.3211,0.321,0.3208,0.3189,0.3172,0,0,0,0,0,0.2331,0.2371,0.245,0.2481,0.2513,0.2577,0.2602,0.266,0.2744,0.2789,0.2882,0.2987,0.3059,0.315,0.3202,0.33,0.3328,0.3325,0.3324,0.3323,0.3321,0.3366,0.3368,0.3343,0.3343,0.3343,0,0,0.2308,0.2367,0.2388,0.247,0.2518,0.2565,0.2605,0.2658,0.2709,0.2808,0.2911,0.2965,0.307,0.316,0.3213,0.325,0.3345,0.3323,0.3322,0.3321,0.3367,0.3369,0.3371,0.3343,0.3343,0.3343,0,0,0.2281,0.2346,0.2377,0.2427,0.2514,0.2558,0.2582,0.2658,0.2714,0.2807,0.2872,0.2945,0.3088,0.3151,0.3207,0.323,0.3296,0.3262,0.3298,0.3341,0.3343,0.3346,0.3383,0.3389,0.3311,0.3311,0.3311,0,0.2257,0.2321,0.2384,0.2434,0.2479,0.2563,0.2608,0.2659,0.2768,0.2817,0.2853,0.2998,0.307,0.3176,0.3193,0.3223,0.3274,0.3299,0.3338,0.3341,0.3344,0.3382,0.339,0.331,0.331,0.331,0.331,0,0.2265,0.2324,0.2342,0.2448,0.2495,0.2543,0.2635,0.2697,0.2769,0.2825,0.2918,0.2995,0.3099,0.3118,0.3182,0.3245,0.3279,0.3289,0.3339,0.3345,0.3385,0.3393,0.3307,0.3308,0.3308,0.3309,0,0,0.2202,0.2326,0.2339,0.2396,0.2514,0.2554,0.2643,0.2742,0.2815,0.2892,0.2972,0.3053,0.3089,0.3149,0.3209,0.3266,0.3314,0.3317,0.332,0.3349,0.3435,0.3228,0.3217,0.3359,0.336,0.3361,0.3454,0,0.2202,0.2286,0.235,0.2434,0.2492,0.2592,0.2661,0.2761,0.2857,0.2951,0.3017,0.3104,0.3109,0.3175,0.322,0.3292,0.3337,0.3289,0.3431,0.3434,0.3244,0.3218,0.3017,0.3062,0.3462,0.3463,0.3464,0,0.2201,0.2266,0.2342,0.2457,0.2491,0.255,0.2697,0.2773,0.2916,0.2986,0.3081,0.3147,0.324,0.3228,0.3342,0.3333,0.3375,0.3413,0.3418,0.3239,0.324,0.3123,0.3062,0.3478,0.3477,0.3476,0.3475,0,0.2144,0.2258,0.232,0.2362,0.2501,0.256,0.2643,0.2789,0.2858,0.3025,0.308,0.3204,0.3268,0.334,0.3423,0.3413,0.3536,0.3525,0.3366,0.3354,0.3209,0.3179,0.3569,0.3569,0.3569,0.3568,0.3568,0,0.2123,0.2172,0.2304,0.2343,0.2412,0.2534,0.2629,0.2732,0.2877,0.296,0.3088,0.3177,0.3303,0.3397,0.3454,0.3429,0.356,0.3346,0.335,0.3188,0.3156,0.354,0.3535,0.3572,0.3571,0.3571,0.357,0,0.2046,0.2135,0.2205,0.2347,0.2387,0.2444,0.2588,0.2664,0.2806,0.2921,0.2974,0.3171,0.3312,0.3406,0.3548,0.3429,0.3463,0.3426,0.3215,0.3185,0.3246,0.3239,0.3224,0.3217,0.3211,0.3206,0.3202,0,0.201,0.2044,0.2173,0.2209,0.2274,0.2374,0.2439,0.2607,0.269,0.2921,0.2963,0.3155,0.3248,0.3334,0.3286,0.3289,0.3424,0.2997,0.2868,0.3197,0.3205,0.3208,0.3208,0.2702,0.2694,0.2688,0.2682,0,0.1927,0.1979,0.2032,0.2111,0.2183,0.2252,0.237,0.2415,0.2625,0.2714,0.288,0.2982,0.3083,0.3002,0.2959,0.2926,0.2965,0.2851,0.3306,0.2771,0.2698,0.2708,0.2728,0.2625,0.2631,0.2635,0.2638,0.264,0.1842,0.1854,0.1932,0.1996,0.2063,0.2128,0.2151,0.2286,0.2379,0.2493,0.2688,0.2723,0.2743,0.2562,0.252,0.2453,0.2603,0.2446,0.247,0.2501,0.2374,0.2288,0.2119,0.2121,0.2124,0.2126,0.2128,0,0.1738,0.1777,0.1819,0.188,0.1899,0.2004,0.2091,0.2098,0.2163,0.2269,0.2353,0.2137,0.2101,0.2197,0.1991,0.1873,0.1913,0.1811,0.1898,0.1952,0.2002,0.1855,0.146,0.1458,0.1456,0.1455,0,0,0.1681,0.1684,0.1716,0.1705,0.1759,0.177,0.1804,0.1828,0.187,0.1821,0.1805,0.1939,0.204,0.1704,0.1656,0.1555,0.1744,0.1485,0.2018,0.2174,0.2222,0.2356,0.2187,0,0,0,0,0]},{"header":{"parameterUnit":"m.s-1","parameterCategory":2,"la1":30.2991,"la2":30.254,"lo1":-89.0895,"lo2":-89.0444,"dy":0.0017,"dx":0.0017,"nx":28,"ny":28,"refTime":"2023-07-19T09:00:00:Z","depth":"2","parameterNumber":3,"parameterNumberName":"V-component_of_CURRENTS"},"data":[0,0,0,0,0,0,0,0,0,0,0,0,0,0,0,0,0,0,0,0,0,0,0,0,0,0,0,0,0,0,0,0,0,0,0,0,0,0,0,0,0,0,0,0,0,0,0,0,0,0,0,0,0,0,0,0,0,0,-0.0896,-0.0897,0,-0.1039,-0.1041,-0.1043,-0.1075,-0.1073,-0.1072,-0.107,-0.0867,-0.0863,-0.086,0,0,0,0,0,0,0,0,0,0,0,0,0,-0.0907,-0.0906,-0.0895,-0.0897,-0.0898,-0.1039,-0.1041,-0.1044,-0.1075,-0.1073,-0.1071,-0.107,-0.0868,-0.0864,-0.0859,0,0,0,0,0,0,0,0,0,0,0,0,0,-0.0967,-0.0905,-0.0895,-0.0926,-0.093,-0.1038,-0.1041,-0.1044,-0.1076,-0.1073,-0.1071,-0.1069,-0.087,-0.0864,-0.0859,-0.0871,0,0,-0.0841,-0.0838,0,0,0,0,0,0,0,0,-0.0963,-0.0967,-0.092,-0.0924,-0.0928,-0.1031,-0.0971,-0.0967,-0.1076,-0.1027,-0.107,-0.1067,-0.0887,-0.088,-0.0927,-0.0861,-0.0853,-0.084,-0.0837,-0.0834,-0.0832,0,0,0,0,0,0,0,-0.0959,-0.0963,-0.0959,-0.0921,-0.0926,-0.1021,-0.1025,-0.0974,-0.0967,-0.1031,-0.1032,-0.1039,-0.0888,-0.0933,-0.0921,-0.085,-0.084,-0.0835,-0.0831,-0.0829,-0.0733,-0.0734,0,0,0,0,0,0,-0.0917,-0.0957,-0.0954,-0.0962,-0.0933,-0.1021,-0.1026,-0.1006,-0.0976,-0.097,-0.1041,-0.104,-0.0944,-0.0928,-0.0913,-0.0834,-0.0834,-0.0829,-0.0825,-0.0732,-0.0733,-0.0734,0,0,0,0,0,0,-0.0916,-0.0914,-0.0948,-0.096,-0.097,-0.102,-0.1,-0.101,-0.102,-0.0986,-0.0974,-0.1035,-0.0941,-0.0921,-0.0815,-0.0828,-0.0826,-0.0821,-0.0731,-0.0732,-0.0733,-0.0731,0,0,0,0,0,0,-0.0916,-0.0913,-0.0898,-0.0956,-0.0967,-0.0992,-0.1002,-0.1014,-0.1027,-0.1026,-0.0977,-0.0959,-0.0938,-0.0824,-0.0809,-0.082,-0.0816,-0.0729,-0.0731,-0.0733,-0.0729,-0.0732,-0.0734,0,0,0,0,0,-0.0915,-0.0902,-0.0895,-0.0896,-0.0939,-0.0992,-0.1008,-0.1042,-0.1028,-0.1041,-0.0975,-0.0959,-0.0828,-0.0817,-0.08,-0.081,-0.0729,-0.0731,-0.0733,-0.0728,-0.0731,-0.0734,0,0,0,0,0,0,-0.0895,-0.0906,-0.0899,-0.0886,-0.0922,-0.0994,-0.101,-0.1026,-0.1003,-0.0969,-0.093,-0.0908,-0.0865,-0.082,-0.0811,-0.0797,-0.0792,-0.0791,-0.0795,-0.0797,-0.0799,-0.0783,-0.0811,0,0,0,0,0,-0.0882,-0.0871,-0.0901,-0.0889,-0.0899,-0.0947,-0.0973,-0.0987,-0.0975,-0.0967,-0.0926,-0.0883,-0.0876,-0.0809,-0.0813,-0.0736,-0.0728,-0.075,-0.0752,-0.0753,-0.0733,-0.0754,-0.0756,-0.0741,-0.0741,-0.0741,0,0,-0.0866,-0.0873,-0.0864,-0.0885,-0.0912,-0.0915,-0.0957,-0.0975,-0.0966,-0.0936,-0.0883,-0.0898,-0.0872,-0.0841,-0.0814,-0.0776,-0.0751,-0.0756,-0.0757,-0.0735,-0.0756,-0.0758,-0.0759,-0.0742,-0.0742,-0.0742,0,0,-0.0832,-0.0834,-0.0809,-0.0833,-0.0856,-0.0891,-0.0879,-0.0919,-0.0924,-0.0877,-0.0895,-0.09,-0.082,-0.0847,-0.0839,-0.0841,-0.0804,-0.0836,-0.0768,-0.079,-0.079,-0.0791,-0.0768,-0.0766,-0.0785,-0.0785,-0.0785,0,-0.0807,-0.0773,-0.0818,-0.0803,-0.0802,-0.0859,-0.0828,-0.0864,-0.086,-0.0839,-0.0839,-0.0836,-0.0847,-0.0828,-0.0851,-0.085,-0.0812,-0.0755,-0.079,-0.0791,-0.0791,-0.0768,-0.0766,-0.0785,-0.0785,-0.0785,-0.0785,0,-0.0755,-0.0728,-0.072,-0.0702,-0.072,-0.0712,-0.0744,-0.0745,-0.0745,-0.0767,-0.0762,-0.0804,-0.0783,-0.0832,-0.0827,-0.0845,-0.0802,-0.0833,-0.0778,-0.0792,-0.0767,-0.0765,-0.0785,-0.0785,-0.0785,-0.0785,0,0,-0.0679,-0.0676,-0.0667,-0.063,-0.0656,-0.0655,-0.0641,-0.0642,-0.0598,-0.0646,-0.0597,-0.0691,-0.072,-0.0718,-0.0759,-0.0779,-0.0799,-0.077,-0.0771,-0.0733,-0.0773,-0.0793,-0.0792,-0.08,-0.08,-0.08,-0.0747,0,-0.0609,-0.0549,-0.0571,-0.0503,-0.0468,-0.0508,-0.048,-0.049,-0.0503,-0.0479,-0.057,-0.0563,-0.0669,-0.0652,-0.0703,-0.0778,-0.0793,-0.0806,-0.0775,-0.0773,-0.078,-0.0793,-0.0749,-0.0702,-0.0746,-0.0745,-0.0745,0,-0.0536,-0.0503,-0.042,-0.0366,-0.035,-0.0317,-0.0266,-0.0253,-0.0268,-0.0268,-0.0298,-0.0364,-0.0426,-0.0524,-0.0628,-0.0602,-0.0682,-0.0753,-0.0753,-0.0767,-0.0791,-0.07,-0.0697,-0.0742,-0.0742,-0.0742,-0.0743,0,-0.0446,-0.0391,-0.0311,-0.0298,-0.0257,-0.0204,-0.0177,-0.0171,-0.0129,-0.0132,-0.0097,-0.0185,-0.0198,-0.0329,-0.0502,-0.0532,-0.0599,-0.067,-0.0763,-0.0763,-0.0722,-0.0719,-0.0754,-0.0754,-0.0754,-0.0754,-0.0755,0,-0.036,-0.029,-0.0252,-0.0204,-0.0086,-0.009,0.0028,0.0038,0.0076,0.0159,0.0029,0.0076,-0.0147,-0.0226,-0.0406,-0.0553,-0.0523,-0.0745,-0.0759,-0.072,-0.0718,-0.0756,-0.0757,-0.0752,-0.0753,-0.0753,-0.0754,0,-0.026,-0.0246,-0.0145,-0.0072,-0.0038,0.0055,0.0158,0.024,0.0257,0.0361,0.0371,0.0301,0.0209,-0.0021,-0.0211,-0.0405,-0.0573,-0.0638,-0.0558,-0.0567,-0.0739,-0.0741,-0.073,-0.073,-0.073,-0.0731,-0.0731,0,-0.0196,-0.0137,-0.0038,0.0027,0.0074,0.0194,0.0285,0.0337,0.0423,0.0511,0.0581,0.052,0.0478,0.0192,-0.0128,-0.0416,-0.0499,-0.0582,-0.0703,-0.0726,-0.074,-0.0741,-0.0742,-0.0628,-0.0627,-0.0627,-0.0626,0,-0.0071,-0.0041,0.0035,0.0158,0.0268,0.0395,0.0527,0.0623,0.0709,0.0792,0.0916,0.0888,0.0616,0.0326,-0.0096,-0.0298,-0.0545,-0.0584,-0.0602,-0.0661,-0.0633,-0.0646,-0.0649,-0.0622,-0.0622,-0.0622,-0.0623,-0.0623,0.0025,0.0095,0.0178,0.0304,0.0427,0.0596,0.073,0.0876,0.1045,0.1168,0.1125,0.1064,0.07,0.0148,-0.0137,-0.0446,-0.0498,-0.0659,-0.066,-0.0661,-0.0679,-0.0656,-0.0648,-0.0649,-0.0649,-0.0649,-0.065,0,0.0126,0.0195,0.0315,0.047,0.0628,0.0665,0.0891,0.1044,0.1281,0.1284,0.1331,0.0942,0.0605,0.024,-0.0216,-0.0533,-0.0546,-0.0609,-0.0576,-0.058,-0.0583,-0.0597,-0.0545,-0.0545,-0.0545,-0.0545,0,0,0.0186,0.03,0.0356,0.0616,0.0734,0.0968,0.111,0.1346,0.1418,0.1409,0.1295,0.1087,0.0631,0.0303,-0.0078,-0.0293,-0.0359,-0.0327,-0.039,-0.031,-0.0308,-0.0601,-0.0626,0,0,0,0,0]}],[{"header":{"parameterUnit":"m.s-1","parameterCategory":2,"la1":30.2991,"la2":30.254,"lo1":-89.0895,"lo2":-89.0444,"dy":0.0017,"dx":0.0017,"nx":28,"ny":28,"refTime":"2023-07-19T09:00:00:Z","depth":"4","parameterNumber":2,"parameterNumberName":"U-component_of_CURRENTS"},"data":[0,0,0,0,0,0,0,0,0,0,0,0,0,0,0,0,0,0,0,0,0,0,0,0,0,0,0,0,0,0,0,0,0,0,0,0,0,0,0,0,0,0,0,0,0,0,0,0,0,0,0,0,0,0,0,0,0,0,0.0763,0.0764,0,0.0816,0.0816,0.0816,0.0891,0.0893,0.0895,0.0896,0.0955,0.0954,0.0954,0,0,0,0,0,0,0,0,0,0,0,0,0,0.0682,0.0683,0.0763,0.0764,0.0765,0.0816,0.0816,0.0816,0.089,0.0893,0.0895,0.0897,0.0955,0.0954,0.0954,0,0,0,0,0,0,0,0,0,0,0,0,0,0.0717,0.0683,0.0763,0.0814,0.082,0.0816,0.0816,0.0816,0.089,0.0893,0.0896,0.0898,0.0955,0.0954,0.0954,0.0893,0,0,0.0953,0.0953,0,0,0,0,0,0,0,0,0.0715,0.0719,0.0805,0.0811,0.0817,0.0857,0.081,0.0845,0.0889,0.0855,0.0896,0.09,0.0925,0.0927,0.092,0.0896,0.0898,0.0953,0.0953,0.0952,0.0952,0,0,0,0,0,0,0,0.0713,0.0717,0.0776,0.0806,0.0814,0.0821,0.0828,0.0816,0.0867,0.0858,0.0866,0.0883,0.0928,0.092,0.0922,0.0899,0.0953,0.0952,0.0952,0.0952,0.0965,0.0966,0,0,0,0,0,0,0.072,0.0715,0.0775,0.0779,0.0781,0.082,0.0829,0.0835,0.0867,0.0878,0.088,0.0886,0.0919,0.0922,0.0924,0.0995,0.0952,0.0952,0.0952,0.0965,0.0965,0.0966,0,0,0,0,0,0,0.0718,0.0724,0.0773,0.0755,0.0763,0.082,0.0825,0.0834,0.0866,0.0886,0.0895,0.0909,0.0922,0.0925,0.0951,0.0993,0.0952,0.0951,0.0964,0.0965,0.0966,0.1045,0,0,0,0,0,0,0.0715,0.0723,0.0737,0.0755,0.0764,0.0801,0.0824,0.0834,0.0874,0.0883,0.0912,0.0918,0.0924,0.0952,0.0951,0.0991,0.0951,0.0963,0.0964,0.0965,0.1042,0.1049,0.1055,0,0,0,0,0,0.0712,0.0722,0.0736,0.0745,0.0778,0.0802,0.0807,0.0852,0.0873,0.0889,0.0913,0.0919,0.0959,0.0952,0.095,0.0992,0.0963,0.0964,0.0965,0.1039,0.1047,0.1054,0,0,0,0,0,0,0.0696,0.0731,0.0748,0.0769,0.0799,0.0819,0.084,0.0862,0.0888,0.0909,0.0917,0.0925,0.0968,0.0954,0.0946,0.0996,0.0964,0.0965,0.1021,0.1029,0.1035,0.1048,0.0951,0,0,0,0,0,0.0695,0.0719,0.0747,0.0771,0.078,0.0809,0.0828,0.0863,0.0887,0.0903,0.0921,0.094,0.096,0.0977,0.0985,0.0999,0.099,0.1025,0.1032,0.1037,0.1046,0.1039,0.1046,0.097,0.097,0.097,0,0,0.0696,0.0724,0.0737,0.0771,0.079,0.081,0.0827,0.087,0.0901,0.0901,0.0944,0.0963,0.0968,0.1003,0.102,0.1005,0.1059,0.1039,0.1044,0.105,0.1041,0.1049,0.1055,0.0971,0.0971,0.0971,0,0,0.0707,0.0729,0.0748,0.0771,0.0821,0.0835,0.0854,0.0888,0.092,0.0962,0.0974,0.101,0.1037,0.1048,0.1057,0.109,0.1093,0.1107,0.1154,0.1148,0.1154,0.116,0.1185,0.1192,0.111,0.111,0.1111,0,0.0705,0.0734,0.0758,0.0782,0.081,0.0847,0.0872,0.0897,0.0945,0.0971,0.0997,0.1051,0.1057,0.1091,0.1124,0.1108,0.1119,0.113,0.1158,0.1163,0.1167,0.1191,0.1198,0.1114,0.1114,0.1114,0.1113,0,0.0723,0.0754,0.0766,0.0807,0.0837,0.0868,0.0908,0.0948,0.0998,0.103,0.1096,0.1111,0.1146,0.116,0.1165,0.1202,0.1208,0.1168,0.1143,0.118,0.1203,0.1209,0.112,0.1119,0.1118,0.1117,0,0,0.0688,0.0761,0.0768,0.08,0.0857,0.0883,0.0936,0.0988,0.103,0.1096,0.1151,0.12,0.1225,0.1234,0.1238,0.1248,0.1301,0.1241,0.1239,0.1276,0.1328,0.1251,0.125,0.1277,0.1278,0.1279,0.1343,0,0.0692,0.0742,0.0781,0.0836,0.086,0.0917,0.0959,0.1023,0.108,0.1138,0.1185,0.1242,0.1245,0.1287,0.1295,0.1296,0.1316,0.129,0.1278,0.1278,0.1212,0.1253,0.1281,0.1347,0.1348,0.1349,0.135,0,0.0685,0.0729,0.0777,0.0862,0.0876,0.0921,0.1006,0.1051,0.1133,0.1191,0.1258,0.1293,0.1346,0.1334,0.1364,0.1356,0.136,0.1356,0.1357,0.1258,0.121,0.1293,0.1359,0.1359,0.1358,0.1357,0.1357,0,0.0646,0.0724,0.0768,0.0794,0.0885,0.0937,0.0994,0.1075,0.1129,0.123,0.1285,0.1343,0.1398,0.1398,0.1408,0.1402,0.1428,0.1399,0.1335,0.1331,0.1347,0.134,0.1415,0.1415,0.1415,0.1415,0.1415,0,0.0624,0.0662,0.0763,0.0788,0.0856,0.0932,0.1011,0.1076,0.1179,0.1236,0.1309,0.1358,0.1421,0.1441,0.1429,0.1403,0.144,0.1359,0.1337,0.1382,0.1378,0.1353,0.1345,0.1417,0.1417,0.1416,0.1416,0,0.0565,0.0629,0.0689,0.0801,0.0838,0.0894,0.1031,0.1081,0.1183,0.1261,0.1307,0.1408,0.1441,0.1462,0.148,0.1431,0.1403,0.138,0.1461,0.1441,0.1317,0.1312,0.1332,0.133,0.1328,0.1327,0.1325,0,0.0538,0.0557,0.0679,0.072,0.0778,0.0877,0.0935,0.1075,0.1121,0.1264,0.128,0.1383,0.1427,0.1392,0.1421,0.1402,0.1375,0.137,0.1325,0.1329,0.1307,0.1305,0.1303,0.1322,0.1322,0.1321,0.1321,0,0.048,0.0526,0.0577,0.0657,0.0737,0.0817,0.0912,0.095,0.109,0.1192,0.125,0.1293,0.1332,0.1354,0.1356,0.1327,0.1374,0.135,0.1354,0.1311,0.1317,0.1296,0.1296,0.1314,0.1315,0.1315,0.1316,0,0.0436,0.0455,0.0522,0.0588,0.068,0.074,0.0802,0.0876,0.0959,0.1112,0.1132,0.122,0.1326,0.1315,0.1297,0.1284,0.1268,0.1225,0.1235,0.1243,0.1179,0.117,0.1116,0,0,0,0,0,0.0404,0.0416,0.045,0.0536,0.0617,0.0674,0.0773,0.0832,0.0964,0.0979,0.1064,0.1095,0.1142,0.1186,0.1153,0.1238,0.1252,0.1194,0.1201,0.1276,0.1284,0.1214,0,0,0,0,0,0,0.0383,0.0419,0.0426,0.0477,0.0516,0.0606,0.067,0.0747,0.0758,0.0891,0.0912,0.1031,0.107,0.1147,0.1133,0.1145,0.1127,0.1259,0.1257,0.1272,0.1279,0.1285,0.1216,0,0,0,0,0]},{"header":{"parameterUnit":"m.s-1","parameterCategory":2,"la1":30.2991,"la2":30.254,"lo1":-89.0895,"lo2":-89.0444,"dy":0.0017,"dx":0.0017,"nx":28,"ny":28,"refTime":"2023-07-19T09:00:00:Z","depth":"4","parameterNumber":3,"parameterNumberName":"V-component_of_CURRENTS"},"data":[0,0,0,0,0,0,0,0,0,0,0,0,0,0,0,0,0,0,0,0,0,0,0,0,0,0,0,0,0,0,0,0,0,0,0,0,0,0,0,0,0,0,0,0,0,0,0,0,0,0,0,0,0,0,0,0,0,0,-0.02,-0.0201,0,-0.0252,-0.0252,-0.0253,-0.0313,-0.0314,-0.0315,-0.0316,-0.0403,-0.0405,-0.0406,0,0,0,0,0,0,0,0,0,0,0,0,0,-0.0164,-0.0164,-0.02,-0.0201,-0.0202,-0.0252,-0.0252,-0.0253,-0.0313,-0.0314,-0.0316,-0.0317,-0.0403,-0.0405,-0.0406,0,0,0,0,0,0,0,0,0,0,0,0,0,-0.0192,-0.0164,-0.02,-0.0239,-0.0243,-0.0252,-0.0252,-0.0253,-0.0313,-0.0314,-0.0316,-0.0317,-0.0402,-0.0404,-0.0406,-0.0387,0,0,-0.0412,-0.0413,0,0,0,0,0,0,0,0,-0.0191,-0.0193,-0.0232,-0.0236,-0.0241,-0.0279,-0.0272,-0.03,-0.0312,-0.0284,-0.0316,-0.0318,-0.0365,-0.037,-0.0374,-0.0391,-0.0394,-0.0413,-0.0414,-0.0415,-0.0415,0,0,0,0,0,0,0,-0.0188,-0.0192,-0.0219,-0.0233,-0.0238,-0.0258,-0.0263,-0.0277,-0.0314,-0.0287,-0.0292,-0.03,-0.0368,-0.0371,-0.0376,-0.0396,-0.0413,-0.0414,-0.0416,-0.0416,-0.0476,-0.0477,0,0,0,0,0,0,-0.0183,-0.0189,-0.0217,-0.0221,-0.0221,-0.0257,-0.0263,-0.0264,-0.0314,-0.0323,-0.0298,-0.0302,-0.0367,-0.0374,-0.038,-0.0404,-0.0415,-0.0417,-0.0418,-0.0476,-0.0476,-0.0477,0,0,0,0,0,0,-0.0182,-0.0185,-0.0215,-0.0208,-0.0214,-0.0256,-0.0256,-0.0264,-0.0281,-0.0322,-0.0332,-0.0309,-0.0369,-0.0377,-0.0412,-0.0406,-0.0417,-0.0419,-0.0475,-0.0476,-0.0477,-0.0424,0,0,0,0,0,0,-0.018,-0.0184,-0.0187,-0.0207,-0.0214,-0.0218,-0.0255,-0.0264,-0.0283,-0.0289,-0.0334,-0.0343,-0.0371,-0.0409,-0.0414,-0.0409,-0.0421,-0.0475,-0.0476,-0.0476,-0.0425,-0.0422,-0.042,0,0,0,0,0,-0.0179,-0.0165,-0.0187,-0.0191,-0.0216,-0.0217,-0.0222,-0.0257,-0.0282,-0.0279,-0.0326,-0.0343,-0.0418,-0.0411,-0.0417,-0.0412,-0.0475,-0.0475,-0.0476,-0.0426,-0.0423,-0.042,0,0,0,0,0,0,-0.0152,-0.0171,-0.0195,-0.019,-0.0206,-0.0228,-0.0229,-0.0254,-0.0286,-0.0304,-0.0344,-0.0356,-0.0389,-0.0408,-0.0399,-0.0435,-0.0449,-0.0451,-0.0409,-0.0406,-0.0404,-0.0394,-0.0422,0,0,0,0,0,-0.0147,-0.0145,-0.0169,-0.0167,-0.0171,-0.0202,-0.0211,-0.0237,-0.0266,-0.0282,-0.0312,-0.0355,-0.0392,-0.0406,-0.044,-0.0448,-0.0471,-0.0452,-0.0449,-0.0447,-0.0445,-0.0469,-0.0468,-0.048,-0.048,-0.048,0,0,-0.0136,-0.0149,-0.0148,-0.0162,-0.0176,-0.0176,-0.021,-0.0222,-0.0229,-0.0285,-0.0303,-0.0348,-0.0396,-0.0419,-0.0433,-0.0434,-0.0459,-0.0448,-0.0446,-0.0445,-0.047,-0.0468,-0.0467,-0.048,-0.048,-0.048,0,0,-0.0105,-0.0122,-0.011,-0.0118,-0.0143,-0.0161,-0.0164,-0.0189,-0.0207,-0.0234,-0.0284,-0.0325,-0.0367,-0.0398,-0.0422,-0.0423,-0.0452,-0.0436,-0.0405,-0.0428,-0.0427,-0.0426,-0.0461,-0.0464,-0.0426,-0.0426,-0.0426,0,-0.0091,-0.0086,-0.0106,-0.0098,-0.0104,-0.0151,-0.0141,-0.0159,-0.0197,-0.0211,-0.0237,-0.0319,-0.0356,-0.0389,-0.0398,-0.0414,-0.044,-0.0408,-0.0423,-0.0423,-0.0423,-0.0459,-0.0462,-0.0424,-0.0424,-0.0424,-0.0425,0,-0.0055,-0.0054,-0.0043,-0.0052,-0.0059,-0.0057,-0.0087,-0.0101,-0.0138,-0.0166,-0.0212,-0.0268,-0.0316,-0.0335,-0.037,-0.0389,-0.0412,-0.0421,-0.0423,-0.0418,-0.0457,-0.0461,-0.042,-0.0421,-0.0422,-0.0422,0,0,-0.0008,-0.0015,-0.0012,-0.0014,-0.0037,-0.0037,-0.0046,-0.0065,-0.0076,-0.0126,-0.0143,-0.0213,-0.0253,-0.0283,-0.0328,-0.035,-0.0377,-0.0383,-0.0385,-0.0406,-0.0441,-0.0418,-0.0422,-0.0388,-0.0388,-0.0388,-0.0469,0,0.0025,0.005,0.0036,0.0051,0.0057,0.0021,0.002,-0.0012,-0.0048,-0.0073,-0.0141,-0.0181,-0.0229,-0.0258,-0.0288,-0.0364,-0.0387,-0.0355,-0.0454,-0.0457,-0.0427,-0.0425,-0.039,-0.0473,-0.0474,-0.0475,-0.0475,0,0.0062,0.0071,0.0096,0.0092,0.0094,0.0095,0.0076,0.0068,0.0019,-0.0011,-0.0063,-0.0122,-0.0183,-0.0216,-0.0325,-0.0306,-0.0366,-0.0419,-0.0423,-0.0422,-0.0442,-0.0481,-0.0484,-0.0484,-0.0483,-0.0482,-0.0482,0,0.0094,0.0111,0.0131,0.0131,0.0123,0.0126,0.0118,0.0083,0.0079,0.0026,0.0005,-0.0076,-0.0128,-0.0209,-0.0326,-0.0328,-0.0441,-0.0454,-0.049,-0.049,-0.0509,-0.0509,-0.0512,-0.0512,-0.0512,-0.0512,-0.0512,0,0.0129,0.0144,0.0148,0.0159,0.018,0.0159,0.0169,0.0151,0.0124,0.0116,0.0038,0.0006,-0.0128,-0.0213,-0.031,-0.0417,-0.0428,-0.0486,-0.0504,-0.0488,-0.0485,-0.0513,-0.0512,-0.0515,-0.0514,-0.0514,-0.0513,0,0.0152,0.0157,0.0179,0.0187,0.0194,0.0204,0.0209,0.0213,0.0182,0.017,0.0153,0.0056,-0.006,-0.0187,-0.0332,-0.0393,-0.0496,-0.0525,-0.0506,-0.0523,-0.0538,-0.0534,-0.0577,-0.0577,-0.0576,-0.0576,-0.0576,0,0.0165,0.018,0.0206,0.0219,0.0224,0.0239,0.0251,0.0241,0.0244,0.0199,0.0193,0.0085,0.0006,-0.0182,-0.0316,-0.0487,-0.0504,-0.0551,-0.0539,-0.0528,-0.0542,-0.0538,-0.0534,-0.0576,-0.0576,-0.0576,-0.0576,0,0.0184,0.0193,0.0209,0.0244,0.0266,0.0286,0.0301,0.0313,0.0296,0.028,0.0224,0.012,-0.001,-0.0171,-0.0301,-0.0422,-0.0518,-0.0549,-0.0551,-0.054,-0.0527,-0.0541,-0.0537,-0.0575,-0.0575,-0.0575,-0.0575,0,0.0194,0.0204,0.0227,0.0256,0.0288,0.0309,0.0321,0.0319,0.0322,0.0285,0.0266,0.0125,0.0041,-0.0137,-0.0258,-0.0374,-0.0404,-0.0427,-0.0435,-0.0437,-0.0368,-0.033,-0.033,0,0,0,0,0,0.0198,0.0205,0.0234,0.0258,0.0293,0.0306,0.034,0.0346,0.0348,0.0323,0.0296,0.018,-0.0005,-0.0096,-0.0208,-0.0267,-0.0432,-0.04,-0.0464,-0.0571,-0.0572,-0.0511,0,0,0,0,0,0,0.0193,0.0217,0.0229,0.0257,0.027,0.0302,0.0323,0.0327,0.0309,0.0299,0.0197,0.0161,-0.0029,0.005,-0.0213,-0.0249,-0.0299,-0.0489,-0.049,-0.0571,-0.0571,-0.0572,-0.051,0,0,0,0,0]}]]